Tracking 27112 objects as of 26-Mar-2023
HD Live streaming from Space Station
objects crossing your sky now

DELTA 2 R/B(1)

Track DELTA 2 R/B(1) now!
10-day predictions


NORAD ID: 22097
Int'l Code: 1992-057B
Perigee: 1,775.4 km
Apogee: 2,645.6 km
Inclination: 25.2 °
Period: 131.9 minutes
Semi major axis: 8581 km
RCS: 10.6891 m2 (large)
Launch date: August 31, 1992
Source: United States (US)
Launch site: AIR FORCE EASTERN TEST RANGE (AFETR)

Note: This is a ROCKET BODY
Your satellite tracking list
Your tracking list is empty




NASA's NSSDC Master Catalog

Two Line Element Set (TLE):
1 22097U 92057B   23084.67373435  .00000054  00000-0 -30063-3 0  9993
2 22097  25.1950  84.7954 0507022 124.2406  33.9175 10.92083084220597
Source of the keplerian elements: AFSPC